Regional Weather Roundup
Issued by NWS

Home | Current Version | Previous Version | Graphics & Text | Print | Product List | Glossary Off
Versions: 1 2 3 4 5 6 7 8 9 10 11 12 13 14 15 16 17 18 19 20 21 22 23 24 25 26 27 28 29 30 31 32 33 34 35 36 37 38 39 40 41 42 43 44 45 46 47 48 49 50

445
ASUS43 KTOP 232108
RWRKS

WEATHER ROUNDUP FOR KANSAS
NATIONAL WEATHER SERVICE GOODLAND KS
300 PM CST THU FEB 23 2017

NOTE:  "FAIR" INDICATES FEW OR NO CLOUDS BELOW 12,000 FEET WITH NO
SIGNIFICANT WEATHER AND/OR OBSTRUCTIONS TO VISIBILITY.

KSZ001>006-013>018-027>032-041>047-232200-
NORTHWEST KANSAS

CITY           SKY/WX    TMP DP  RH WIND       PRES   REMARKS
GOODLAND       CLOUDY    31  31 100 NE15      29.53R WCI  20
HAYS           MOSUNNY   57  39  51 NE23      29.39F
HILL CITY      CLOUDY    38  34  85 NE21G30   29.52S WCI  28
RUSSELL        SUNNY     58  39  49 NE17      29.39F
$$

KSZ061>065-074>080-084>089-232200-
SOUTHWEST KANSAS

CITY           SKY/WX    TMP DP  RH WIND       PRES   REMARKS
DODGE CITY     SUNNY     79  20  11 SW33G44   29.28F
ELKHART          N/A     72  19  13 SW25        N/A
GARDEN CITY    SUNNY     77  16  10 W24G35    29.26F
GREAT BEND     SUNNY     67  44  43 NE14      29.34F
LIBERAL        SUNNY     77  21  12 SW36G43   29.32F
PRATT          SUNNY     71  38  30 SE14      29.31F
$$

KSZ066>073-081>083-090>101-232200-
SOUTHEAST KANSAS

CITY           SKY/WX    TMP DP  RH WIND       PRES   REMARKS
CHANUTE        PTSUNNY   77  49  37 S16       29.39F
COFFEYVILLE    MOSUNNY   80  50  34 S17       29.38F
HUTCHINSON     SUNNY     71  48  43 SE10G20   29.34F
MEDICINE LODGE   N/A     73  42  32 S14G20    29.31F
NEWTON         SUNNY     69  51  52 S14       29.36F
PARSONS        MOSUNNY   79  50  36 S12       29.39F
WICHITA INTL   MOSUNNY   72  48  42 SE12      29.34F
WICHITA JABRA  PTSUNNY   70  48  45 S15G22    29.34F
WICHITA MCCONL MOSUNNY   70  47  43 S14       29.34F
WINFIELD       MOSUNNY   74  50  42 S8        29.35F
$$

KSZ007>012-019>026-033>040-048>060-102>105-232200-
NORTHEAST KANSAS

CITY           SKY/WX    TMP DP  RH WIND       PRES   REMARKS
CONCORDIA      CLOUDY    46  37  71 NE20      29.46S
EMPORIA        CLOUDY    68  51  54 SE12      29.37F
LAWRENCE       CLOUDY    57  46  66 E12       29.44F
MANHATTAN      MOSUNNY   59  44  57 N15       29.42F
MARYSVILLE     CLOUDY    46  37  71 NE13      29.48F
OLATHE IND     CLOUDY    58  47  66 E15G21    29.44F
OLATHE EXE     CLOUDY    56  47  71 E10       29.44F
SALINA         SUNNY     67  47  48 VRB5      29.39F
TOPEKA BILLARD MOSUNNY   62  48  60 E13       29.42F
TOPEKA FORBES  MOSUNNY   62  46  55 E15       29.41F
$$




USA.gov is the U.S. government's official web portal to all federal, state and local government web resources and services.